,,,PA_Meas_PMT16A,,PR_Meas_QMR101_102,,RH_Meas_QMH101,,SR_Meas_QMS101,,TA_Meas_QMH101,,GenWind,,GenWind,
date,time,status,PA,status,PR,status,RH,status,SR,status,TA,status,DirAvg,status,SpdAvg,
2014-11-11, 00:00:04,VALID,1011.2,VALID,0,INVALID,120.769,VALID,0,VALID,23.4797,VALID,137,VALID,0.69375,
2014-11-11, 00:01:04,VALID,1011.18,VALID,0,INVALID,120.723,VALID,0,VALID,23.4992,VALID,137,VALID,0.373047,
2014-11-11, 00:02:04,VALID,1011.17,VALID,0,INVALID,120.754,VALID,0,VALID,23.4992,VALID,137,VALID,0.544531,
2014-11-11, 00:03:04,VALID,1011.18,VALID,0,INVALID,120.7,VALID,0,VALID,23.5186,VALID,137,VALID,0.403125,
2014-11-11, 00:04:04,VALID,1011.18,VALID,0,INVALID,120.754,VALID,0,VALID,23.4992,VALID,137,VALID,0.762891,
2014-11-11, 00:05:04,VALID,1011.16,VALID,0,INVALID,120.739,VALID,0,VALID,23.4974,VALID,137,VALID,0.522656,
2014-11-11, 00:06:04,VALID,1011.14,VALID,0,INVALID,120.822,VALID,0,VALID,23.4992,VALID,137,VALID,0.598828,
2014-11-11, 00:07:04,VALID,1011.1,VALID,0,INVALID,120.754,VALID,0,VALID,23.5186,VALID,137,VALID,0.308594,
2014-11-11, 00:08:04,VALID,1011.13,VALID,0,INVALID,120.716,VALID,0,VALID,23.4974,VALID,137,VALID,0.258594,
2014-11-11, 00:09:04,VALID,1011.12,VALID,0,INVALID,120.678,VALID,0,VALID,23.5186,VALID,137,VALID,0,
2014-11-11, 00:10:04,VALID,1011.08,VALID,0,INVALID,120.67,VALID,0,VALID,23.5381,VALID,137,VALID,0,
2014-11-11, 00:11:04,VALID,1011.12,VALID,0,INVALID,120.632,VALID,0,VALID,23.5381,VALID,137,VALID,0,
2014-11-11, 00:12:04,VALID,1011.08,VALID,0,INVALID,120.601,VALID,0,VALID,23.5381,VALID,137,VALID,0,
2014-11-11, 00:13:04,VALID,1011.09,VALID,0,INVALID,120.586,VALID,0,VALID,23.5381,VALID,137,VALID,0,
2014-11-11, 00:14:04,VALID,1011.04,VALID,0,INVALID,120.754,VALID,0,VALID,23.5186,VALID,136,VALID,0,
2014-11-11, 00:15:04,VALID,1011.03,VALID,0,INVALID,120.8,VALID,0,VALID,23.5381,VALID,136,VALID,0,
2014-11-11, 00:16:04,VALID,1011.02,VALID,0,INVALID,120.853,VALID,0,VALID,23.5399,VALID,136,VALID,0,
2014-11-11, 00:17:04,VALID,1010.98,VALID,0,INVALID,121.059,VALID,0,VALID,23.4992,VALID,136,VALID,0,
2014-11-11, 00:18:04,VALID,1010.98,VALID,0,INVALID,121.097,VALID,0,VALID,23.5186,VALID,136,VALID,0,
2014-11-11, 00:19:04,VALID,1010.93,VALID,0,INVALID,121.127,VALID,0,VALID,23.4992,VALID,136,VALID,0,
2014-11-11, 00:20:04,VALID,1010.95,VALID,0,INVALID,121.173,VALID,0,VALID,23.5186,VALID,136,VALID,0,
2014-11-11, 00:21:04,VALID,1010.92,VALID,0,INVALID,121.135,VALID,0,VALID,23.4974,VALID,136,VALID,0,
2014-11-11, 00:22:04,VALID,1010.91,VALID,0,INVALID,121.249,VALID,0,VALID,23.5186,VALID,136,VALID,0,
2014-11-11, 00:23:04,VALID,1010.9,VALID,0,INVALID,121.28,VALID,0,VALID,23.4992,VALID,136,VALID,0,
2014-11-11, 00:24:04,VALID,1010.89,VALID,0,INVALID,121.272,VALID,0,VALID,23.5186,VALID,136,VALID,0,
2014-11-11, 00:25:04,VALID,1010.89,VALID,0,INVALID,121.219,VALID,0,VALID,23.5186,VALID,136,VALID,0,
2014-11-11, 00:26:04,VALID,1010.88,VALID,0,INVALID,121.265,VALID,0,VALID,23.4992,VALID,136,VALID,0,
2014-11-11, 00:27:04,VALID,1010.91,VALID,0,INVALID,121.318,VALID,0,VALID,23.4992,VALID,136,VALID,0,
2014-11-11, 00:28:04,VALID,1010.88,VALID,0,INVALID,121.417,VALID,0,VALID,23.4407,VALID,136,VALID,0,
2014-11-11, 00:29:04,VALID,1010.85,VALID,0,INVALID,121.562,VALID,0,VALID,23.4407,VALID,136,VALID,0,
2014-11-11, 00:30:04,VALID,1010.84,VALID,0,INVALID,121.577,VALID,0,VALID,23.4407,VALID,136,VALID,0,
2014-11-11, 00:31:04,VALID,1010.83,VALID,0,INVALID,121.593,VALID,0,VALID,23.4212,VALID,136,VALID,0,
2014-11-11, 00:32:04,VALID,1010.83,VALID,0,INVALID,121.646,VALID,0,VALID,23.4212,VALID,136,VALID,0,
2014-11-11, 00:33:04,VALID,1010.83,VALID,0,INVALID,121.738,VALID,0,VALID,23.4017,VALID,136,VALID,0,
2014-11-11, 00:34:04,VALID,1010.82,VALID,0,INVALID,121.768,VALID,0,VALID,23.4212,VALID,136,VALID,0,
2014-11-11, 00:35:04,VALID,1010.82,VALID,0,INVALID,121.844,VALID,0,VALID,23.4212,VALID,136,VALID,0,
2014-11-11, 00:36:04,VALID,1010.84,VALID,0,INVALID,121.86,VALID,0,VALID,23.4212,VALID,136,VALID,0,
2014-11-11, 00:37:04,VALID,1010.81,VALID,0,INVALID,121.882,VALID,0,VALID,23.4212,VALID,136,VALID,0,
2014-11-11, 00:38:04,VALID,1010.83,VALID,0,INVALID,121.867,VALID,0,VALID,23.4212,VALID,136,VALID,0,
2014-11-11, 00:39:04,VALID,1010.83,VALID,0,INVALID,121.913,VALID,0.112112,VALID,23.4212,VALID,136,VALID,0,
2014-11-11, 00:40:04,VALID,1010.81,VALID,0,INVALID,121.905,VALID,0,VALID,23.4017,VALID,136,VALID,0,
2014-11-11, 00:41:04,VALID,1010.83,VALID,0,INVALID,121.959,VALID,0,VALID,23.4212,VALID,136,VALID,0,
2014-11-11, 00:42:04,VALID,1010.8,VALID,0,INVALID,121.867,VALID,0,VALID,23.4212,VALID,136,VALID,0,
2014-11-11, 00:43:04,VALID,1010.79,VALID,0,INVALID,121.966,VALID,0,VALID,23.3823,VALID,136,VALID,0,
2014-11-11, 00:44:04,VALID,1010.76,VALID,0,INVALID,121.989,VALID,0,VALID,23.4017,VALID,136,VALID,0,
2014-11-11, 00:45:04,VALID,1010.78,VALID,0,INVALID,121.943,VALID,0,VALID,23.4212,VALID,136,VALID,0,
2014-11-11, 00:46:04,VALID,1010.77,VALID,0,INVALID,121.898,VALID,0,VALID,23.4212,VALID,136,VALID,0,
2014-11-11, 00:47:04,VALID,1010.74,VALID,0,INVALID,122.058,VALID,0,VALID,23.3823,VALID,136,VALID,0,
2014-11-11, 00:48:04,VALID,1010.7,VALID,0,INVALID,122.065,VALID,0,VALID,23.3823,VALID,136,VALID,0,
2014-11-11, 00:49:04,VALID,1010.7,VALID,0,INVALID,122.065,VALID,0,VALID,23.3823,VALID,136,VALID,0,
2014-11-11, 00:50:04,VALID,1010.7,VALID,0,INVALID,122.035,VALID,0,VALID,23.4017,VALID,136,VALID,0,
2014-11-11, 00:51:04,VALID,1010.71,VALID,0,INVALID,122.073,VALID,0,VALID,23.3823,VALID,136,VALID,0,
2014-11-11, 00:52:04,VALID,1010.68,VALID,0,INVALID,122.104,VALID,0,VALID,23.3823,VALID,136,VALID,0,
2014-11-11, 00:53:04,VALID,1010.69,VALID,0,INVALID,122.142,VALID,0,VALID,23.3628,VALID,136,VALID,0,
2014-11-11, 00:54:04,VALID,1010.66,VALID,0,INVALID,122.157,VALID,0,VALID,23.3823,VALID,136,VALID,0,
2014-11-11, 00:55:04,VALID,1010.67,VALID,0,INVALID,122.18,VALID,0,VALID,23.3415,VALID,136,VALID,0,
2014-11-11, 00:56:04,VALID,1010.68,VALID,0,INVALID,122.119,VALID,0,VALID,23.3823,VALID,136,VALID,0,
2014-11-11, 00:57:04,VALID,1010.69,VALID,0,INVALID,122.195,VALID,0,VALID,23.3415,VALID,136,VALID,0,
2014-11-11, 00:58:04,VALID,1010.67,VALID,0,INVALID,122.271,VALID,0,VALID,23.3628,VALID,136,VALID,0,
2014-11-11, 00:59:04,VALID,1010.66,VALID,0,INVALID,122.401,VALID,0,VALID,23.3433,VALID,136,VALID,0,
2014-11-11, 01:00:04,VALID,1010.65,VALID,0,INVALID,122.447,VALID,0,VALID,23.3628,VALID,136,VALID,0,
2014-11-11, 01:01:04,VALID,1010.66,VALID,0,INVALID,122.553,VALID,0,VALID,23.3433,VALID,136,VALID,0,
2014-11-11, 01:02:04,VALID,1010.64,VALID,0,INVALID,122.47,VALID,0,VALID,23.3628,VALID,136,VALID,0,
2014-11-11, 01:03:04,VALID,1010.62,VALID,0,INVALID,122.637,VALID,0,VALID,23.3433,VALID,136,VALID,0,
2014-11-11, 01:04:04,VALID,1010.61,VALID,0,INVALID,122.683,VALID,0,VALID,23.3433,VALID,136,VALID,0,
2014-11-11, 01:05:04,VALID,1010.63,VALID,0,INVALID,122.691,VALID,0,VALID,23.3628,VALID,136,VALID,0,
2014-11-11, 01:06:04,VALID,1010.63,VALID,0,INVALID,122.775,VALID,0,VALID,23.3628,VALID,136,VALID,0,
2014-11-11, 01:07:04,VALID,1010.63,VALID,0,INVALID,122.782,VALID,0,VALID,23.3433,VALID,136,VALID,0,
2014-11-11, 01:08:04,VALID,1010.59,VALID,0,INVALID,122.828,VALID,0,VALID,23.3415,VALID,136,VALID,0,
2014-11-11, 01:09:04,VALID,1010.56,VALID,0,INVALID,122.935,VALID,0,VALID,23.3433,VALID,136,VALID,0,
2014-11-11, 01:10:04,VALID,1010.57,VALID,0,INVALID,123.057,VALID,0,VALID,23.3238,VALID,136,VALID,0,
2014-11-11, 01:11:04,VALID,1010.55,VALID,0,INVALID,123.202,VALID,0,VALID,23.3043,VALID,136,VALID,0,
2014-11-11, 01:12:04,VALID,1010.55,VALID,0,INVALID,123.171,VALID,0,VALID,23.3238,VALID,136,VALID,0,
2014-11-11, 01:13:04,VALID,1010.52,VALID,0,INVALID,123.125,VALID,0,VALID,23.3451,VALID,136,VALID,0,
2014-11-11, 01:14:04,VALID,1010.52,VALID,0,INVALID,123.118,VALID,0,VALID,23.3433,VALID,136,VALID,0,
2014-11-11, 01:15:04,VALID,1010.46,VALID,0,INVALID,123.11,VALID,0,VALID,23.3433,VALID,136,VALID,0,
2014-11-11, 01:16:04,VALID,1010.5,VALID,0,INVALID,123.263,VALID,0,VALID,23.3451,VALID,136,VALID,0,
2014-11-11, 01:17:04,VALID,1010.45,VALID,0,INVALID,123.217,VALID,0,VALID,23.3433,VALID,136,VALID,0,
2014-11-11, 01:18:04,VALID,1010.48,VALID,0,INVALID,123.133,VALID,0,VALID,23.3433,VALID,136,VALID,0,
2014-11-11, 01:19:04,VALID,1010.46,VALID,0,INVALID,123.209,VALID,0,VALID,23.3451,VALID,136,VALID,0,
2014-11-11, 01:20:04,VALID,1010.44,VALID,0,INVALID,123.385,VALID,0,VALID,23.3238,VALID,136,VALID,0,
2014-11-11, 01:21:04,VALID,1010.43,VALID,0,INVALID,123.491,VALID,0,VALID,23.3043,VALID,136,VALID,0,
2014-11-11, 01:22:04,VALID,1010.42,VALID,0,INVALID,123.575,VALID,0,VALID,23.3043,VALID,136,VALID,0,
2014-11-11, 01:23:04,VALID,1010.42,VALID,0,INVALID,123.613,VALID,0,VALID,23.3043,VALID,136,VALID,0,
2014-11-11, 01:24:04,VALID,1010.41,VALID,0,INVALID,123.636,VALID,0,VALID,23.3043,VALID,136,VALID,0,
2014-11-11, 01:25:04,VALID,1010.38,VALID,0,INVALID,123.659,VALID,0,VALID,23.3256,VALID,136,VALID,0,
2014-11-11, 01:26:04,VALID,1010.36,VALID,0,INVALID,123.743,VALID,0,VALID,23.2848,VALID,136,VALID,0,
2014-11-11, 01:27:04,VALID,1010.35,VALID,0,INVALID,123.842,VALID,0,VALID,23.2848,VALID,136,VALID,0,
2014-11-11, 01:28:04,VALID,1010.33,VALID,0,INVALID,123.835,VALID,0,VALID,23.2848,VALID,136,VALID,0,
2014-11-11, 01:29:04,VALID,1010.33,VALID,0,INVALID,123.835,VALID,0,VALID,23.3043,VALID,136,VALID,0,
2014-11-11, 01:30:04,VALID,1010.28,VALID,0,INVALID,123.903,VALID,0,VALID,23.2848,VALID,136,VALID,0,
2014-11-11, 01:31:04,VALID,1010.27,VALID,0,INVALID,123.964,VALID,0,VALID,23.2848,VALID,136,VALID,0,
2014-11-11, 01:32:04,VALID,1010.23,VALID,0,INVALID,123.964,VALID,0,VALID,23.3043,VALID,136,VALID,0,
2014-11-11, 01:33:04,VALID,1010.23,VALID,0,INVALID,123.964,VALID,0,VALID,23.2848,VALID,136,VALID,0,
2014-11-11, 01:34:04,VALID,1010.21,VALID,0,INVALID,124.086,VALID,0,VALID,23.2654,VALID,136,VALID,0,
2014-11-11, 01:35:04,VALID,1010.18,VALID,0,INVALID,124.193,VALID,0,VALID,23.2459,VALID,136,VALID,0,
2014-11-11, 01:36:04,VALID,1010.18,VALID,0,INVALID,124.323,VALID,0,VALID,23.2459,VALID,136,VALID,0,
2014-11-11, 01:37:04,VALID,1010.15,VALID,0,INVALID,124.338,VALID,0,VALID,23.2459,VALID,136,VALID,0,
2014-11-11, 01:38:04,VALID,1010.13,VALID,0,INVALID,124.376,VALID,0,VALID,23.2459,VALID,136,VALID,0,
2014-11-11, 01:39:04,VALID,1010.13,VALID,0,INVALID,124.429,VALID,0,VALID,23.2264,VALID,136,VALID,0,
2014-11-11, 01:40:04,VALID,1010.11,VALID,0,INVALID,124.368,VALID,0,VALID,23.2459,VALID,136,VALID,0,
2014-11-11, 01:41:04,VALID,1010.07,VALID,0,INVALID,124.353,VALID,0,VALID,23.2654,VALID,136,VALID,0,
2014-11-11, 01:42:04,VALID,1010.05,VALID,0,INVALID,124.498,VALID,0,VALID,23.2459,VALID,136,VALID,0,
2014-11-11, 01:43:04,VALID,1010.01,VALID,0,INVALID,124.551,VALID,0,VALID,23.2459,VALID,136,VALID,0,
2014-11-11, 01:44:04,VALID,1010.02,VALID,0,INVALID,124.559,VALID,0,VALID,23.2654,VALID,136,VALID,0,
2014-11-11, 01:45:04,VALID,1009.99,VALID,0,INVALID,124.658,VALID,0,VALID,23.2654,VALID,136,VALID,0,
2014-11-11, 01:46:04,VALID,1009.96,VALID,0,INVALID,124.651,VALID,0,VALID,23.2654,VALID,136,VALID,0,
2014-11-11, 01:47:04,VALID,1009.95,VALID,0,INVALID,124.628,VALID,0,VALID,23.2848,VALID,136,VALID,0,
2014-11-11, 01:48:04,VALID,1009.96,VALID,0,INVALID,124.658,VALID,0,VALID,23.2636,VALID,136,VALID,0,
2014-11-11, 01:49:04,VALID,1009.94,VALID,0,INVALID,124.689,VALID,0,VALID,23.2848,VALID,136,VALID,0,
2014-11-11, 01:50:04,VALID,1009.91,VALID,0,INVALID,124.788,VALID,0,VALID,23.2654,VALID,136,VALID,0,
2014-11-11, 01:51:04,VALID,1009.93,VALID,0,INVALID,124.902,VALID,0,VALID,23.2654,VALID,136,VALID,0,
2014-11-11, 01:52:04,VALID,1009.94,VALID,0,INVALID,124.933,VALID,0,VALID,23.2654,VALID,136,VALID,0,
2014-11-11, 01:53:04,VALID,1009.94,VALID,0,INVALID,124.925,VALID,0,VALID,23.2636,VALID,136,VALID,0,
2014-11-11, 01:54:04,VALID,1009.91,VALID,0,INVALID,124.925,VALID,0,VALID,23.2654,VALID,136,VALID,0,
2014-11-11, 01:55:04,VALID,1009.94,VALID,0,INVALID,125.039,VALID,0,VALID,23.2654,VALID,136,VALID,0,
2014-11-11, 01:56:04,VALID,1009.93,VALID,0,INVALID,125.07,VALID,0,VALID,23.2441,VALID,136,VALID,0,
2014-11-11, 01:57:04,VALID,1009.92,VALID,0,INVALID,125.085,VALID,0,VALID,23.2441,VALID,136,VALID,0,
2014-11-11, 01:58:04,VALID,1009.95,VALID,0,INVALID,125.1,VALID,0,VALID,23.2654,VALID,136,VALID,0,
2014-11-11, 01:59:04,VALID,1009.95,VALID,0,INVALID,125.192,VALID,0,VALID,23.2476,VALID,136,VALID,0,
2014-11-11, 02:00:04,VALID,1009.96,VALID,0,INVALID,125.222,VALID,0,VALID,23.2264,VALID,136,VALID,0,
2014-11-11, 02:01:04,VALID,1009.97,VALID,0,INVALID,125.291,VALID,0,VALID,23.2476,VALID,136,VALID,0,
2014-11-11, 02:02:04,VALID,1009.98,VALID,0,INVALID,125.284,VALID,0,VALID,23.2264,VALID,136,VALID,0,
2014-11-11, 02:03:04,VALID,1009.98,VALID,0,INVALID,125.306,VALID,0,VALID,23.2264,VALID,136,VALID,0,
2014-11-11, 02:04:04,VALID,1009.99,VALID,0,INVALID,125.39,VALID,0,VALID,23.2264,VALID,136,VALID,0,
2014-11-11, 02:05:04,VALID,1009.98,VALID,0,INVALID,125.345,VALID,0,VALID,23.2264,VALID,136,VALID,0,
2014-11-11, 02:06:04,VALID,1009.99,VALID,0,INVALID,125.352,VALID,0,VALID,23.2069,VALID,136,VALID,0,
2014-11-11, 02:07:04,VALID,1009.98,VALID,0,INVALID,125.375,VALID,0,VALID,23.2264,VALID,136,VALID,0,
2014-11-11, 02:08:04,VALID,1010,VALID,0,INVALID,125.428,VALID,0,VALID,23.2069,VALID,136,VALID,0,
2014-11-11, 02:09:04,VALID,1009.99,VALID,0,INVALID,125.428,VALID,0,VALID,23.2069,VALID,136,VALID,0,
2014-11-11, 02:10:04,VALID,1009.98,VALID,0,INVALID,125.421,VALID,0,VALID,23.2069,VALID,136,VALID,0,
2014-11-11, 02:11:04,VALID,1010,VALID,0,INVALID,125.436,VALID,0,VALID,23.2069,VALID,136,VALID,0,
2014-11-11, 02:12:04,VALID,1009.99,VALID,0,INVALID,125.497,VALID,0,VALID,23.2069,VALID,136,VALID,0,
2014-11-11, 02:13:04,VALID,1010,VALID,0,INVALID,125.421,VALID,0,VALID,23.2069,VALID,136,VALID,0,
2014-11-11, 02:14:04,VALID,1009.98,VALID,0,INVALID,125.383,VALID,0,VALID,23.2282,VALID,136,VALID,0,
2014-11-11, 02:15:04,VALID,1010,VALID,0,INVALID,125.428,VALID,0,VALID,23.1857,VALID,136,VALID,0,
2014-11-11, 02:16:04,VALID,1009.99,VALID,0,INVALID,125.459,VALID,0,VALID,23.2264,VALID,136,VALID,0,
2014-11-11, 02:17:04,VALID,1010,VALID,0,INVALID,125.421,VALID,0,VALID,23.1857,VALID,136,VALID,0,
2014-11-11, 02:18:04,VALID,1009.99,VALID,0,INVALID,125.467,VALID,0,VALID,23.2069,VALID,136,VALID,0,
2014-11-11, 02:19:04,VALID,1009.96,VALID,0,INVALID,125.451,VALID,0,VALID,23.2069,VALID,136,VALID,0,
2014-11-11, 02:20:04,VALID,1009.94,VALID,0,INVALID,125.428,VALID,0,VALID,23.2069,VALID,136,VALID,0,
2014-11-11, 02:21:04,VALID,1009.96,VALID,0,INVALID,125.367,VALID,0.112112,VALID,23.2264,VALID,136,VALID,0,
2014-11-11, 02:22:04,VALID,1009.97,VALID,0,INVALID,125.383,VALID,0,VALID,23.2264,VALID,136,VALID,0,
2014-11-11, 02:23:04,VALID,1009.93,VALID,0,INVALID,125.375,VALID,0,VALID,23.2051,VALID,136,VALID,0,
2014-11-11, 02:24:04,VALID,1009.91,VALID,0,INVALID,125.375,VALID,0,VALID,23.2459,VALID,136,VALID,0,
2014-11-11, 02:25:04,VALID,1009.92,VALID,0,INVALID,125.375,VALID,0,VALID,23.2264,VALID,136,VALID,0,
2014-11-11, 02:26:04,VALID,1009.89,VALID,0,INVALID,125.383,VALID,0,VALID,23.2264,VALID,136,VALID,0,
2014-11-11, 02:27:04,VALID,1009.92,VALID,0,INVALID,125.36,VALID,0,VALID,23.2264,VALID,136,VALID,0,
2014-11-11, 02:28:04,VALID,1009.91,VALID,0,INVALID,125.39,VALID,0,VALID,23.2264,VALID,136,VALID,0,
2014-11-11, 02:29:04,VALID,1009.89,VALID,0,INVALID,125.322,VALID,0,VALID,23.2459,VALID,136,VALID,0,
2014-11-11, 02:30:04,VALID,1009.89,VALID,0,INVALID,125.352,VALID,0,VALID,23.2264,VALID,136,VALID,0,
2014-11-11, 02:31:04,VALID,1009.88,VALID,0,INVALID,125.39,VALID,0,VALID,23.2069,VALID,136,VALID,0,
2014-11-11, 02:32:04,VALID,1009.86,VALID,0,INVALID,125.406,VALID,0,VALID,23.2069,VALID,136,VALID,0,
2014-11-11, 02:33:04,VALID,1009.87,VALID,0,INVALID,125.467,VALID,0,VALID,23.2069,VALID,136,VALID,0,
2014-11-11, 02:34:04,VALID,1009.82,VALID,0,INVALID,125.566,VALID,0,VALID,23.1874,VALID,136,VALID,0,
2014-11-11, 02:35:04,VALID,1009.86,VALID,0,INVALID,125.573,VALID,0,VALID,23.1662,VALID,136,VALID,0,
2014-11-11, 02:36:04,VALID,1009.84,VALID,0,INVALID,125.634,VALID,0,VALID,23.1679,VALID,136,VALID,0,
2014-11-11, 02:37:04,VALID,1009.86,VALID,0,INVALID,125.581,VALID,0.112112,VALID,23.1467,VALID,136,VALID,0,
2014-11-11, 02:38:04,VALID,1009.85,VALID,0,INVALID,125.581,VALID,0,VALID,23.1679,VALID,136,VALID,0,
2014-11-11, 02:39:04,VALID,1009.84,VALID,0,INVALID,125.604,VALID,0,VALID,23.1679,VALID,136,VALID,0,
2014-11-11, 02:40:04,VALID,1009.84,VALID,0,INVALID,125.627,VALID,0,VALID,23.1485,VALID,136,VALID,0,
2014-11-11, 02:41:04,VALID,1009.84,VALID,0,INVALID,125.589,VALID,0,VALID,23.1467,VALID,136,VALID,0,
2014-11-11, 02:42:04,VALID,1009.84,VALID,0,INVALID,125.596,VALID,0,VALID,23.1485,VALID,136,VALID,0,
2014-11-11, 02:43:04,VALID,1009.84,VALID,0,INVALID,125.611,VALID,0,VALID,23.1485,VALID,136,VALID,0,
2014-11-11, 02:44:04,VALID,1009.86,VALID,0,INVALID,125.672,VALID,0,VALID,23.1272,VALID,136,VALID,0,
2014-11-11, 02:45:04,VALID,1009.85,VALID,0,INVALID,125.657,VALID,0,VALID,23.1485,VALID,136,VALID,0,
2014-11-11, 02:46:04,VALID,1009.88,VALID,0,INVALID,125.672,VALID,0,VALID,23.129,VALID,136,VALID,0,
2014-11-11, 02:47:04,VALID,1009.86,VALID,0,INVALID,125.68,VALID,0,VALID,23.129,VALID,136,VALID,0,
2014-11-11, 02:48:04,VALID,1009.88,VALID,0,INVALID,125.703,VALID,0,VALID,23.1095,VALID,136,VALID,0,
2014-11-11, 02:49:04,VALID,1009.86,VALID,0,INVALID,125.718,VALID,0,VALID,23.1095,VALID,136,VALID,0,
2014-11-11, 02:50:04,VALID,1009.88,VALID,0,INVALID,125.726,VALID,0,VALID,23.1095,VALID,136,VALID,0,
2014-11-11, 02:51:04,VALID,1009.85,VALID,0,INVALID,125.688,VALID,0,VALID,23.1095,VALID,136,VALID,0,
2014-11-11, 02:52:04,VALID,1009.82,VALID,0,INVALID,125.726,VALID,0,VALID,23.09,VALID,136,VALID,0,
2014-11-11, 02:53:04,VALID,1009.8,VALID,0,INVALID,125.749,VALID,0,VALID,23.0705,VALID,136,VALID,0,
2014-11-11, 02:54:04,VALID,1009.81,VALID,0,INVALID,125.749,VALID,0,VALID,23.0705,VALID,136,VALID,0,
2014-11-11, 02:55:04,VALID,1009.78,VALID,0,INVALID,125.749,VALID,0,VALID,23.0493,VALID,136,VALID,0,
2014-11-11, 02:56:04,VALID,1009.78,VALID,0,INVALID,125.802,VALID,0,VALID,23.0705,VALID,136,VALID,0,
2014-11-11, 02:57:04,VALID,1009.75,VALID,0,INVALID,125.779,VALID,0,VALID,23.0511,VALID,136,VALID,0,
2014-11-11, 02:58:04,VALID,1009.75,VALID,0,INVALID,125.726,VALID,0,VALID,23.0705,VALID,136,VALID,0,
2014-11-11, 02:59:04,VALID,1009.75,VALID,0,INVALID,125.756,VALID,0,VALID,23.0511,VALID,136,VALID,0,
2014-11-11, 03:00:04,VALID,1009.72,VALID,0,INVALID,125.703,VALID,0,VALID,23.0511,VALID,136,VALID,0,
2014-11-11, 03:01:04,VALID,1009.69,VALID,0,INVALID,125.634,VALID,0,VALID,23.0511,VALID,136,VALID,0,
2014-11-11, 03:02:04,VALID,1009.71,VALID,0,INVALID,125.619,VALID,0,VALID,23.0511,VALID,136,VALID,0,
2014-11-11, 03:03:04,VALID,1009.73,VALID,0,INVALID,125.65,VALID,0,VALID,23.0511,VALID,136,VALID,0,
2014-11-11, 03:04:04,VALID,1009.72,VALID,0,INVALID,125.604,VALID,0,VALID,23.0298,VALID,136,VALID,0,
2014-11-11, 03:05:04,VALID,1009.72,VALID,0,INVALID,125.573,VALID,0,VALID,23.0511,VALID,136,VALID,0,
2014-11-11, 03:06:04,VALID,1009.72,VALID,0,INVALID,125.589,VALID,0,VALID,23.0511,VALID,136,VALID,0,
2014-11-11, 03:07:04,VALID,1009.73,VALID,0,INVALID,125.505,VALID,0,VALID,23.0511,VALID,136,VALID,0,
2014-11-11, 03:08:04,VALID,1009.74,VALID,0,INVALID,125.482,VALID,0,VALID,23.0511,VALID,136,VALID,0,
2014-11-11, 03:09:04,VALID,1009.7,VALID,0,INVALID,125.467,VALID,0,VALID,23.0511,VALID,136,VALID,0,
2014-11-11, 03:10:04,VALID,1009.71,VALID,0,INVALID,125.436,VALID,0,VALID,23.0511,VALID,136,VALID,0,
2014-11-11, 03:11:04,VALID,1009.71,VALID,0,INVALID,125.383,VALID,0,VALID,23.0493,VALID,136,VALID,0,
2014-11-11, 03:12:04,VALID,1009.72,VALID,0,INVALID,125.291,VALID,0,VALID,23.09,VALID,136,VALID,0,
2014-11-11, 03:13:04,VALID,1009.7,VALID,0,INVALID,125.322,VALID,0,VALID,23.09,VALID,136,VALID,0,
2014-11-11, 03:14:04,VALID,1009.7,VALID,0,INVALID,125.337,VALID,0.112112,VALID,23.0688,VALID,136,VALID,0,
2014-11-11, 03:15:04,VALID,1009.74,VALID,0,INVALID,125.329,VALID,0,VALID,23.09,VALID,136,VALID,0,
2014-11-11, 03:16:04,VALID,1009.72,VALID,0,INVALID,125.261,VALID,0,VALID,23.09,VALID,136,VALID,0,
2014-11-11, 03:17:04,VALID,1009.71,VALID,0,INVALID,125.207,VALID,0,VALID,23.09,VALID,136,VALID,0,
2014-11-11, 03:18:04,VALID,1009.71,VALID,0,INVALID,125.131,VALID,0,VALID,23.1095,VALID,136,VALID,0,
2014-11-11, 03:19:04,VALID,1009.7,VALID,0,INVALID,125.039,VALID,0,VALID,23.1502,VALID,136,VALID,0,
2014-11-11, 03:20:04,VALID,1009.69,VALID,0,INVALID,124.994,VALID,0,VALID,23.129,VALID,136,VALID,0,
2014-11-11, 03:21:04,VALID,1009.66,VALID,0,INVALID,125.024,VALID,0,VALID,23.129,VALID,136,VALID,0,
2014-11-11, 03:22:04,VALID,1009.65,VALID,0,INVALID,125.024,VALID,0,VALID,23.1485,VALID,136,VALID,0,
2014-11-11, 03:23:04,VALID,1009.63,VALID,0,INVALID,125.039,VALID,0,VALID,23.129,VALID,136,VALID,0,
2014-11-11, 03:24:04,VALID,1009.62,VALID,0,INVALID,125.024,VALID,0,VALID,23.129,VALID,136,VALID,0,
2014-11-11, 03:25:04,VALID,1009.57,VALID,0,INVALID,124.956,VALID,0,VALID,23.1485,VALID,136,VALID,0,
2014-11-11, 03:26:04,VALID,1009.55,VALID,0,INVALID,125.009,VALID,0,VALID,23.1077,VALID,136,VALID,0,
2014-11-11, 03:27:04,VALID,1009.54,VALID,0,INVALID,125.062,VALID,0,VALID,23.1095,VALID,136,VALID,0,
2014-11-11, 03:28:04,VALID,1009.51,VALID,0,INVALID,125.078,VALID,0,VALID,23.1095,VALID,136,VALID,0,
2014-11-11, 03:29:04,VALID,1009.5,VALID,0,INVALID,125.039,VALID,0,VALID,23.1095,VALID,136,VALID,0,
2014-11-11, 03:30:04,VALID,1009.49,VALID,0,INVALID,125.07,VALID,0,VALID,23.09,VALID,136,VALID,0,
2014-11-11, 03:31:04,VALID,1009.46,VALID,0,INVALID,125.062,VALID,0,VALID,23.09,VALID,94,VALID,0,
2014-11-11, 03:32:04,VALID,1009.45,VALID,0,INVALID,125.108,VALID,0,VALID,23.0705,VALID,95,VALID,0,
2014-11-11, 03:33:04,VALID,1009.46,VALID,0,INVALID,124.986,VALID,0,VALID,23.09,VALID,95,VALID,0,
2014-11-11, 03:34:04,VALID,1009.43,VALID,0,INVALID,124.978,VALID,0,VALID,23.09,VALID,95,VALID,0,
2014-11-11, 03:35:04,VALID,1009.42,VALID,0,INVALID,124.902,VALID,0,VALID,23.1307,VALID,95,VALID,0,
2014-11-11, 03:36:04,VALID,1009.47,VALID,0,INVALID,124.956,VALID,0,VALID,23.09,VALID,87,VALID,0,
2014-11-11, 03:37:04,VALID,1009.42,VALID,0,INVALID,124.956,VALID,0,VALID,23.09,VALID,87,VALID,0,
2014-11-11, 03:38:04,VALID,1009.43,VALID,0,INVALID,125.123,VALID,0,VALID,23.0511,VALID,87,VALID,0,
2014-11-11, 03:39:04,VALID,1009.45,VALID,0,INVALID,125.001,VALID,0,VALID,23.0511,VALID,87,VALID,0,
2014-11-11, 03:40:04,VALID,1009.46,VALID,0,INVALID,125.032,VALID,0,VALID,23.0705,VALID,87,VALID,0,
2014-11-11, 03:41:04,VALID,1009.46,VALID,0,INVALID,124.902,VALID,0,VALID,23.0705,VALID,87,VALID,0,
2014-11-11, 03:42:04,VALID,1009.44,VALID,0,INVALID,125.024,VALID,0,VALID,23.0316,VALID,87,VALID,0,
2014-11-11, 03:43:04,VALID,1009.46,VALID,0,INVALID,124.986,VALID,0,VALID,23.0316,VALID,87,VALID,0,
2014-11-11, 03:44:04,VALID,1009.45,VALID,0,INVALID,125.009,VALID,0,VALID,23.0121,VALID,87,VALID,0,
2014-11-11, 03:45:04,VALID,1009.44,VALID,0,INVALID,124.887,VALID,0,VALID,23.0121,VALID,87,VALID,0,
2014-11-11, 03:46:04,VALID,1009.45,VALID,0,INVALID,124.864,VALID,0,VALID,23.0121,VALID,87,VALID,0,
2014-11-11, 03:47:04,VALID,1009.44,VALID,0,INVALID,124.963,VALID,0,VALID,22.9926,VALID,87,VALID,0,
2014-11-11, 03:48:04,VALID,1009.45,VALID,0,INVALID,124.879,VALID,0,VALID,22.9731,VALID,87,VALID,0,
2014-11-11, 03:49:04,VALID,1009.48,VALID,0,INVALID,124.75,VALID,0,VALID,22.9926,VALID,87,VALID,0,
2014-11-11, 03:50:04,VALID,1009.47,VALID,0,INVALID,124.651,VALID,0,VALID,22.9926,VALID,87,VALID,0,
2014-11-11, 03:51:04,VALID,1009.49,VALID,0,INVALID,124.704,VALID,0,VALID,22.9731,VALID,87,VALID,0,
2014-11-11, 03:52:04,VALID,1009.51,VALID,0,INVALID,124.681,VALID,0,VALID,22.9731,VALID,87,VALID,0,
2014-11-11, 03:53:04,VALID,1009.5,VALID,0,INVALID,124.757,VALID,0,VALID,22.9536,VALID,87,VALID,0,
2014-11-11, 03:54:04,VALID,1009.53,VALID,0,INVALID,124.605,VALID,0,VALID,22.9536,VALID,87,VALID,0,